Regional Weather Roundup
Issued by NWS

Home | Current Version | Previous Version | Text Only | Print | Product List | Glossary On
Versions: 1 2 3 4 5 6 7 8 9 10 11 12 13 14 15 16 17 18 19 20 21 22 23 24 25 26 27 28 29 30 31 32 33 34 35 36 37 38 39 40 41 42 43 44 45 46 47 48 49 50
000
ASCA42 TJSJ 232111
RWRPR
PUERTO RICO/U.S. VIRGIN ISLANDS HOURLY WEATHER ROUNDUP
NATIONAL WEATHER SERVICE SAN JUAN PR
500 PM AST THU OCT 23 2014

PRZ001-004-232200-
PUERTO RICO

CITY           SKY/WX    TMP DP  RH WIND       PRES   REMARKS
SAN JUAN LMM   MOSUNNY   86  77  74 E13       29.87R HX  97
MAYAGUEZ       PTSUNNY   86  72  62 E7        29.92  HX  92
AGUADILLA      PTSUNNY   84  73  70 N6        29.90S HX  91
CEIBA          PTSUNNY   84  75  74 E10       29.91R HX  92
$$

PRZ006-007-232200-
U.S. VIRGIN ISLANDS

CITY           SKY/WX    TMP DP  RH WIND       PRES   REMARKS
CHARLOTTE AMA  MOSUNNY   84  75  74 SE10      29.88R HX  92
CHRISTIANSTED  MOSUNNY   86  75  70 E12       29.89  HX  95
$$

HOURLY WEATHER ROUNDUP FOR THE NEWS MEDIA

CITY           SKY/WX    TMP DP  RH WIND       PRES   REMARKS
MIAMI          LGT RAIN  77  71  82 NE9G18    29.87S
ORLANDO        SUNNY     79  55  43 NE7       29.93F
NEW YORK       CLOUDY    54  45  71 N23G31    29.69R
NEWARK         PTSUNNY   54  49  83 NW20G25   29.72R
CHICAGO        CLOUDY    57  42  57 S12       30.08F
HARTFORD       LGT RAIN  57  55  93 N12G22    29.51R FOG
BOSTON         LGT RAIN  52  51  97 N25G37    29.60R FOG
DALLAS         MOSUNNY   79  56  45 S8        30.07F
PHILADELPHIA   CLOUDY    57  44  62 N20G29    29.78R



USA.gov is the U.S. government's official web portal to all federal, state and local government web resources and services.